Regional Weather Roundup
Issued by NWS Wakefield, VA

Home | Current Version | Previous Version | Graphics & Text | Print | Product List | Glossary On
Versions: 1 2 3 4 5 6 7 8 9 10 11 12 13 14 15 16 17 18 19 20 21 22 23 24 25 26 27 28 29 30 31 32 33 34 35 36 37 38 39 40 41 42 43 44 45 46 47 48 49 50
000
ASUS41 KAKQ 281914
RWRAKQ

REGIONAL WEATHER ROUNDUP
NATIONAL WEATHER SERVICE WAKEFIELD VA
300 PM EDT SAT MAR 28 2015

Note: "fair" indicates few or no clouds below 12,000 feet with no
significant weather and/or obstructions to visibility. * = Denotes
station may not report precipitation (e.g., rain,snow,etc.),
thunder or fog.

VAZ042-051-052>054-056-282000-
NORTHERN VIRGINIA

CITY           SKY/WX    TMP DP  RH WIND       PRES   REMARKS
WASH NATIONAL  CLOUDY    37  12  35 NW16G28   30.04R
DULLES         PTSUNNY   33  11  39 NW17G29   30.04R WCI  22
FORT BELVOIR   PTSUNNY   36   8  30 NW15G32   30.04R
QUANTICO       MOSUNNY   37  10  32 NW17G29   30.06S
FREDERICKSBRG* SUNNY     38  12  34 NW20G37   30.05R
STAFFORD*      MOSUNNY   35   8  31 NW17G29   30.09S WCI  25
WARRENTON      MOSUNNY   36  17  46 NW15G28   30.06R
CULPEPER*      MOSUNNY   36  10  35 NW14G24   30.07R
MANASSAS*      PTSUNNY   36  10  35 NW16G24   30.05S
LEESBURG*      PTSUNNY   34  18  51 NW21G30   30.05S WCI  22
WINCHESTER     PTSUNNY   32   0  25 W21G26    30.05S WCI  20
FRONT ROYAL*   MOCLDY    30   9  40 NW16G26   30.06R WCI  19
LURAY*         CLOUDY    34  12  40 N16G25    30.07R WCI  23
$$

VAZ048-049-060>072-079>083-282000-
CENTRAL AND SOUTH CENTRAL VIRGINIA

CITY           SKY/WX    TMP DP  RH WIND       PRES   REMARKS
RICHMOND       PTSUNNY   41  11  29 NW15      30.01F
CHESTERFIELD*  CLOUDY    39  12  33 NW8G21    30.03F
PETERSBURG*    CLOUDY    39  15  37 W9        30.03F
HANOVER        PTSUNNY   41  13  31 NW14G21   30.03F
TAPPAHANNOCK*  MOSUNNY   40   0  18 W13G22    30.02R
QUINTON*       MOCLDY    39  14  35 W14G23    30.01F
CHARLOTTSVILLE MOSUNNY   35   5  28 NW12G25   30.03S
GORDONSVILLE*  MOCLDY    36   6  29 NW9G22    30.03S
ORANGE*        SUNNY     37  12  35 NW12G21   30.05S
LOUISA*        MOSUNNY   39  10  30 NW15G21   30.01S
BUMPASS*       FAIR      37   7  29 NW7       30.02F
FARMVILLE*     PTSUNNY   42  11  28 W8        30.02S
CREWE*         CLOUDY    40  14  34 MISG      30.02S
FORT PICKETT*  CLOUDY    38  19  47 NW14G20   30.02S
CHASE CITY*    FAIR      40  16  36 W13G20    30.03S
CLARKSVILLE*   FAIR      41  18  38 NW9       30.03F
SOUTH HILL*    PTSUNNY   41  17  37 NW8G17    30.07F
LAWRENCEVILLE* CLOUDY    38  24  57 NW6       30.02F
EMPORIA*       CLOUDY    36  27  69 NW12G18   30.05S
$$

VAZ088>098-282000-
SOUTHEAST VIRGINIA

CITY           SKY/WX    TMP DP  RH WIND       PRES   REMARKS
NORFOLK        CLOUDY    39  18  42 VRB6      30.00S
VIRGINIA BEACH CLOUDY    42  20  41 W15G22    29.99S
NORFOLK NAVAL  NOT AVBL
WEST POINT*    PTSUNNY   44  10  25 W20G26    30.02F
SALUDA*        CLOUDY    38  15  39 NW14G23   29.99F
NEWPORT NEWS   CLOUDY    43  20  39 W16G22    30.01
LANGLEY AFB    PTSUNNY   39  19  44 NW15G21   29.99F
FORT EUSTIS    PTSUNNY   40  21  46 NW15G22   29.99F
WILLIAMSBURG*  MOSUNNY   43  19  39 W13G21    30.02S
HR EXEC AP*    MOCLDY    39  23  52 NW9G18    30.03S
FRANKLIN*      CLOUDY    37  25  62 W13G20    30.04F
WAKEFIELD      PTSUNNY   41  21  44 W10G16    30.03S
$$

VAZ020-022-025-037-045-282000-
WEST CENTRAL AND SOUTHWEST VIRGINIA

CITY           SKY/WX    TMP DP  RH WIND       PRES   REMARKS
STAUNTON*      CLOUDY    32   5  32 NW13G20   30.04S WCI  23
WAYNESBORO*    MOCLDY    32   6  33 W12G25    30.01S WCI  23
HOT SPRINGS VA MOSUNNY   24   3  40 NW9G20    29.88R
LYNCHBURG      SUNNY     37   9  31 NW12G20   30.05R
DANVILLE       SUNNY     44  14  29 W10G24    30.04F
SOUTH BOSTON*  FAIR      42  11  27 W15G24    30.04F
MARTINSVILLE   SUNNY     41   8  25 NW7G21    30.07F
ROANOKE        MOSUNNY   34   6  31 W8G18     30.09S
BLACKSBURG     SUNNY     29   8  39 NW18G29   30.06S WCI  17
DUBLIN*        PTSUNNY   34  11  37 NW9G17    30.05R
MARION*        SUNNY     33   6  31 W21G28    30.04F WCI  21
HILLSVILLE*    SUNNY     31   6  35 NW18G29   29.99R WCI  19
RICHLANDS*     FAIR      30   6  36 NW10G21   30.06S WCI  21
WISE*          MOSUNNY   32  12  43 NW9G20    30.09S
ABINGDON*      MOSUNNY   35  12  38 N16       30.10S WCI  25
$$

MDZ021>025-VAZ099-100-282000-
SOUTHERN MARYLAND AND THE DELMARVA PENINSULA

CITY           SKY/WX    TMP DP  RH WIND       PRES   REMARKS
PATUXENT RIVER PTSUNNY   37   9  31 NW15G28   30.00S
BAY BRIDGE APT   N/A     36  18  48 NW18G25   30.00R
LEONARDTOWN    MOSUNNY   36   9  32 NW10G16   30.01S
DOVER          LGT RAIN  36  23  60 W20G29    29.93R WCI  25
GEORGETOWN     CLOUDY    34  21  59 W13G25    29.95F WCI  25
EASTON         MOSUNNY   36  19  51 N17G35    30.02R
CAMBRIDGE      MOSUNNY   36  18  48 NW13G24   29.98F
SALISBURY      CLOUDY    35  17  47 W15G23    29.96R
OCEAN CITY     PTSUNNY   37  19  48 NW16G25   29.94R
WALLOPS ISLAND SUNNY     39  11  31 NW17G28   29.97S
ACCOMACK*      CLOUDY    37  12  35 NW24G33   29.99S
$$

NCZ012>017-030>032-282000-
NORTH CENTRAL AND EASTERN NORTH CAROLINA

CITY           SKY/WX    TMP DP  RH WIND       PRES   REMARKS
ROANOKE RAPIDS CLOUDY    39  19  45 W8G17     30.03S
RALEIGH        MOSUNNY   44  13  28 VRB7G20   30.05F
ELIZABETH CITY CLOUDY    41  27  57 W14       30.01S
AHOSKIE*       CLOUDY    37  24  57 NW5G16    30.04S
EDENTON*       CLOUDY    41  30  65 NW8       30.02F
CURRITUCK*     CLOUDY    42  23  47 W9G18     30.00S
KILL DEVIL HLS CLOUDY    40  31  68 W8        29.99S
MANTEO         CLOUDY    39  31  70 NW8       30.01R
CAPE HATTERAS  CLOUDY    42  31  64 VRB5      30.00R
TARBORO*       MOCLDY    45  20  37 W13G21    30.04F
GOLDSBORO      MOSUNNY   46  28  49 W13       30.01S
WASHINGTON     MOSUNNY   43  29  57 W5        30.02F
GREENVILLE     PTSUNNY   45  25  45 NW8G17    30.04S
NEW BERN       PTSUNNY   48  29  47 NW15      30.01F
WILMINGTON     MOSUNNY   52  29  41 W16       30.02S
$$

VAZ048-282000-
ELSEWHERE

CITY           SKY/WX    TMP DP  RH WIND       PRES   REMARKS
HARRISBURG PA  PTSUNNY   35  14  42 NW16G25   29.98S
BALTIMORE      CLOUDY    33  14  45 NW14G25   29.99S WCI  23
ANNAPOLIS      CLOUDY    34  16  47 NW15      30.00R WCI  24
ANDREWS AFB    CLOUDY    32  12  43 W18       30.00R WCI  20
PHILADELPHIA   CLOUDY    39  14  36 N23       29.91R
HENDERSON NC   MOSUNNY   42  10  27 NW13G22   30.04S
GREENSBORO     MOSUNNY   43  11  27 W15G21    30.03F
ROCKY MOUNT    MOSUNNY   43  20  39 NW8G26    30.03F
$$

VAZ100-282000-
MARINE

STATION/POSITION TIME  TEMP    WIND        PRES    WAVE   SWELL
                       AIR SEA DIR/SP/G            HT/PER HT/PER
                 (UTC) (F)     (DEG/KT/KT) (MB)    (FT/S) (FT/S)
BRANDYWINE LGT   1812   32 40  310/ 21/ 26 1013.0R
CAPE MAY NJ      1800   34 43  300/ 21/ 27 1012.4R
LEWES DE         1800   33 43  290/ 20/ 24 1013.5R
15NM E FENWICK I 1850   35 40              1012.6R   5/ 5
OCEAN-CITY-INLET 1812   36 40  330/ 14/ 17 1013.1R
WACHAPREAGUE VA  1800   39 46  300/  6/ 19 1015.2R
THOMAS POINT MD  1900                        N/A
COVE POINT MD    1800   32     340/ 19/ 24 1015.5R
SOLOMONS ISLAND  1800      44                N/A
BISHOPS HEAD MD  1806          310/ 17/ 21   N/A
PINEY POINT MD   1806          310/ 23/ 27   N/A
CAMBRIDGE MD     1800   33 44  310/ 17/ 21 1015.3R
LEWISETTA VA     1800   35 45              1016.1R
RAPPAHANNOCK LGT 1800          330/ 20/ 24 1016.0R
STINGRAY PT      1900   37 45  320/ 16/ 23   N/A     2/ 3
YORK RVR RNG VA  1800   37     330/ 14/ 19 1015.2R
YORKTOWN VA      1800   37 47  320/ 15/ 19 1015.8
DOMINION TERM VA 1800   37     330/ 15/ 21 1016.2R
KIPTOPEKE VA     1800      49  310/ 19/ 23   N/A
CHES BAY BRIDGE  1806   37 44  310/ 17/ 20 1015.5R
CAPE HENRY VA    1800   37     310/ 14/ 19 1014.5R
CHESAPEAKE LGHT  1800   37     320/ 17/ 20 1016.3R
WILLOUBY STN VA  1800   37     320/ 16/ 18 1016.5R
S CRANEY ISL VA  1800          330/ 10/ 15 1016.0
CAPE HENRY BUOY  1828      40                N/A     5/ 7   2/11
1ST LANDING BUOY 1900   38     330/ 16/ 19 1015.5F   2/ 3
OFFSHORE WE BUOY 1811      41                N/A     6/ 5   3/ 7
64NM E OF VA BCH 1850   38 57  320/ 21/ 27 1014.4R   9/ 8   3/10
DUCK PIER NC     1800   39 42  300/ 11/ 13 1014.9R
44056 DUCK FRF   1811      42                N/A     6/ 7   2/11
OREGON INLET NC  1800   39 45  350/ 12/ 15 1015.5R
HATTERAS NC      1800   45 53  320/  7/ 11 1016.0R
CAPE LOOKOUT NC  1900   49     280/ 15/ 18 1015.4F
$$



USA.gov is the U.S. government's official web portal to all federal, state and local government web resources and services.